Terug naar catalogus

ATLAS 5 CENTAUR DEB

ActiefHEO
NORAD 45475·DEBRIS·🇺🇸 United States

Gelanceerd Oct 17, 2018 vanaf Cape Canaveral Space Force Station

Loading…

Volgende Passages (komende 24 uur)

TLE

VersSource: Space-Track

Epoch: Sep 14, 2026, 11:31 UTC

1 45475U 18079BX  26257.47997069 -.00000174  00000-0  00000-0 0  9996
2 45475  13.4480  18.1755 4741974 351.8671   2.4890  1.84723190 46829

Volg ATLAS 5 CENTAUR DEB in realtime met AllMySat

Download on the App Store